GFSNW_prec_pwat_021.txt.gz
Precipitable_Water
0.57 0.59 0.58 0.57 0.58 0.56 0.49 0.38 0.22 0.42 0.43 0.23 0.25 0.20 0.23 0.27 0.28 0.38 0.34 0.34 0.33 0.30 0.34 0.32 0.33 0.34 0.38 0.44 0.47 0.39 0.43 0.34 0.27 0.28 0.35 0.34 0.30 0.25 0.23 0.16 0.15 0.14 0.13 0.11
0.61 0.61 0.60 0.58 0.59 0.60 0.49 0.32 0.33 0.47 0.43 0.21 0.23 0.27 0.25 0.27 0.30 0.33 0.35 0.32 0.37 0.39 0.33 0.31 0.37 0.40 0.47 0.46 0.45 0.41 0.42 0.35 0.28 0.28 0.30 0.32 0.30 0.30 0.28 0.24 0.22 0.16 0.12 0.12
0.62 0.66 0.65 0.63 0.62 0.62 0.53 0.37 0.26 0.35 0.39 0.38 0.29 0.26 0.24 0.24 0.34 0.36 0.43 0.40 0.37 0.34 0.33 0.37 0.36 0.40 0.47 0.46 0.47 0.49 0.45 0.36 0.32 0.26 0.29 0.32 0.27 0.28 0.30 0.26 0.20 0.18 0.17 0.17
0.65 0.68 0.69 0.69 0.67 0.65 0.56 0.41 0.32 0.38 0.27 0.30 0.32 0.32 0.29 0.26 0.26 0.33 0.39 0.41 0.40 0.34 0.27 0.30 0.31 0.39 0.43 0.46 0.46 0.44 0.42 0.33 0.35 0.36 0.37 0.35 0.31 0.29 0.28 0.25 0.26 0.21 0.21 0.20
0.68 0.70 0.72 0.75 0.73 0.68 0.53 0.37 0.35 0.41 0.36 0.37 0.34 0.31 0.29 0.28 0.30 0.30 0.28 0.35 0.39 0.41 0.34 0.31 0.30 0.35 0.38 0.39 0.44 0.40 0.42 0.34 0.37 0.32 0.35 0.34 0.31 0.32 0.31 0.29 0.27 0.25 0.24 0.23
0.76 0.76 0.74 0.76 0.76 0.73 0.54 0.54 0.54 0.45 0.37 0.32 0.32 0.31 0.30 0.31 0.34 0.34 0.37 0.39 0.37 0.34 0.38 0.43 0.43 0.41 0.40 0.40 0.39 0.38 0.36 0.35 0.32 0.27 0.34 0.32 0.26 0.29 0.31 0.31 0.33 0.29 0.22 0.26
0.75 0.81 0.85 0.80 0.78 0.77 0.68 0.61 0.55 0.41 0.29 0.32 0.31 0.33 0.34 0.33 0.35 0.32 0.35 0.36 0.34 0.39 0.46 0.43 0.37 0.35 0.32 0.32 0.34 0.41 0.36 0.34 0.32 0.27 0.30 0.21 0.28 0.35 0.37 0.33 0.32 0.31 0.28 0.29
0.67 0.77 0.85 0.88 0.84 0.80 0.71 0.69 0.57 0.45 0.32 0.34 0.32 0.33 0.33 0.35 0.36 0.34 0.34 0.37 0.42 0.47 0.42 0.30 0.26 0.26 0.25 0.23 0.24 0.32 0.36 0.34 0.27 0.23 0.24 0.27 0.29 0.33 0.39 0.38 0.31 0.45 0.42 0.37
0.62 0.73 0.82 0.90 0.90 0.87 0.78 0.71 0.68 0.54 0.39 0.34 0.40 0.35 0.35 0.30 0.30 0.32 0.36 0.43 0.47 0.44 0.36 0.28 0.21 0.17 0.20 0.18 0.22 0.26 0.30 0.36 0.30 0.26 0.19 0.18 0.29 0.38 0.53 0.54 0.28 0.54 0.55 0.50
0.59 0.70 0.79 0.89 0.93 0.91 0.84 0.73 0.73 0.56 0.42 0.45 0.45 0.37 0.35 0.40 0.35 0.32 0.34 0.36 0.35 0.43 0.30 0.22 0.20 0.20 0.25 0.16 0.16 0.22 0.23 0.26 0.23 0.23 0.22 0.26 0.34 0.47 0.68 0.32 0.34 0.62 0.64 0.59
0.56 0.67 0.80 0.89 0.94 0.93 0.88 0.77 0.79 0.61 0.47 0.47 0.50 0.50 0.42 0.42 0.40 0.30 0.35 0.33 0.35 0.34 0.27 0.25 0.24 0.24 0.26 0.22 0.20 0.19 0.20 0.21 0.23 0.24 0.21 0.18 0.34 0.39 0.37 0.59 0.69 0.67 0.70 0.69
0.57 0.68 0.83 0.92 0.97 0.96 0.94 0.74 0.84 0.80 0.59 0.51 0.59 0.57 0.57 0.52 0.48 0.40 0.40 0.33 0.33 0.36 0.31 0.31 0.32 0.27 0.29 0.28 0.20 0.31 0.20 0.23 0.29 0.24 0.23 0.31 0.39 0.43 0.61 0.67 0.61 0.71 0.73 0.84
0.59 0.72 0.86 0.93 0.98 0.99 0.95 0.83 0.82 0.74 0.58 0.54 0.51 0.46 0.54 0.60 0.57 0.57 0.36 0.40 0.44 0.40 0.45 0.40 0.38 0.30 0.36 0.27 0.28 0.31 0.35 0.41 0.30 0.27 0.31 0.36 0.36 0.44 0.61 0.66 0.65 0.78 0.88 1.00
0.62 0.77 0.89 0.94 0.97 1.00 0.98 0.85 0.87 0.77 0.64 0.47 0.47 0.58 0.50 0.59 0.59 0.57 0.55 0.50 0.53 0.52 0.52 0.44 0.40 0.34 0.44 0.34 0.36 0.35 0.38 0.40 0.34 0.34 0.35 0.33 0.37 0.42 0.58 0.62 0.64 0.74 0.90 1.14
0.63 0.79 0.89 0.96 0.97 0.99 0.99 0.93 0.90 0.88 0.66 0.49 0.51 0.58 0.57 0.57 0.57 0.57 0.57 0.55 0.52 0.49 0.45 0.43 0.38 0.44 0.42 0.43 0.43 0.37 0.42 0.36 0.32 0.26 0.38 0.39 0.41 0.55 0.67 0.65 0.73 0.83 0.96 1.09
0.68 0.76 0.87 0.94 0.95 0.98 0.89 0.68 0.82 0.89 0.84 0.60 0.46 0.61 0.56 0.60 0.59 0.57 0.57 0.57 0.55 0.53 0.47 0.44 0.47 0.51 0.49 0.38 0.34 0.43 0.49 0.51 0.48 0.41 0.49 0.48 0.54 0.55 0.63 0.72 0.84 0.97 1.13 1.28
0.70 0.78 0.85 0.90 0.93 0.94 0.79 0.71 0.83 0.93 0.87 0.61 0.50 0.51 0.62 0.67 0.67 0.65 0.63 0.65 0.59 0.56 0.52 0.48 0.49 0.50 0.54 0.46 0.37 0.48 0.56 0.59 0.57 0.54 0.50 0.41 0.51 0.49 0.70 0.88 1.04 1.14 1.25 1.36
0.78 0.82 0.87 0.90 0.96 0.96 0.85 0.94 0.97 0.94 0.75 0.67 0.50 0.51 0.57 0.75 0.61 0.58 0.68 0.60 0.60 0.59 0.56 0.58 0.53 0.57 0.56 0.44 0.51 0.58 0.64 0.67 0.67 0.64 0.58 0.54 0.63 0.69 0.83 1.08 1.15 1.12 1.12 1.17
0.79 0.84 0.89 0.88 0.85 0.77 0.83 0.99 0.98 0.94 0.74 0.56 0.55 0.48 0.46 0.71 0.64 0.66 0.66 0.65 0.51 0.64 0.53 0.56 0.59 0.54 0.47 0.57 0.63 0.68 0.70 0.66 0.67 0.71 0.71 0.69 0.69 0.79 0.92 1.08 1.11 1.09 1.03 1.04
0.81 0.81 0.70 0.65 0.83 1.01 0.97 0.83 0.71 0.69 0.70 0.68 0.57 0.64 0.54 0.65 0.62 0.60 0.60 0.62 0.54 0.47 0.55 0.63 0.53 0.54 0.68 0.75 0.79 0.83 0.83 0.83 0.77 0.67 0.67 0.75 0.80 0.89 1.02 1.08 1.14 1.07 1.07 1.11
0.73 0.68 0.66 0.87 1.00 0.88 0.76 0.63 0.60 0.62 0.57 0.66 0.67 0.67 0.60 0.73 0.57 0.57 0.65 0.55 0.55 0.45 0.53 0.51 0.50 0.51 0.67 0.86 0.92 0.97 0.98 0.92 0.87 0.85 0.88 0.87 0.93 0.92 1.04 1.07 1.11 1.10 1.09 1.07
0.76 0.80 0.90 0.89 0.77 0.69 0.60 0.57 0.63 0.61 0.57 0.71 0.66 0.69 0.72 0.72 0.75 0.63 0.64 0.54 0.56 0.45 0.64 0.52 0.46 0.59 0.76 0.86 0.89 0.93 0.95 0.94 0.93 0.91 0.88 0.88 1.06 1.09 1.10 1.11 1.13 1.17 1.19 1.13
0.79 0.71 0.66 0.68 0.63 0.50 0.48 0.45 0.53 0.56 0.69 0.72 0.72 0.66 0.73 0.75 0.75 0.66 0.63 0.53 0.50 0.65 0.50 0.45 0.52 0.68 0.77 0.82 0.84 0.88 0.96 0.97 0.96 0.98 1.03 1.05 1.07 1.11 1.07 1.09 1.12 1.09 1.07 1.08
0.57 0.51 0.45 0.52 0.50 0.55 0.57 0.58 0.61 0.69 0.71 0.68 0.69 0.66 0.63 0.66 0.59 0.60 0.50 0.55 0.57 0.44 0.40 0.43 0.58 0.68 0.75 0.80 0.84 0.84 0.85 0.91 0.93 0.95 0.98 0.96 0.97 0.96 0.97 0.97 0.98 0.96 0.95 0.96
0.45 0.47 0.37 0.44 0.59 0.64 0.66 0.69 0.66 0.67 0.69 0.68 0.63 0.63 0.62 0.57 0.54 0.56 0.52 0.46 0.41 0.43 0.42 0.53 0.63 0.68 0.71 0.74 0.77 0.77 0.81 0.84 0.87 0.89 0.93 0.93 0.94 0.93 0.92 0.92 0.92 0.94 0.92 0.92
0.49 0.48 0.41 0.43 0.41 0.47 0.55 0.59 0.59 0.65 0.65 0.68 0.64 0.56 0.51 0.49 0.52 0.47 0.45 0.42 0.40 0.49 0.59 0.66 0.69 0.63 0.64 0.64 0.65 0.68 0.72 0.77 0.79 0.82 0.84 0.84 0.84 0.85 0.86 0.88 0.90 0.91 0.91 0.89
0.49 0.46 0.52 0.48 0.44 0.41 0.44 0.51 0.51 0.58 0.52 0.47 0.54 0.46 0.46 0.58 0.48 0.44 0.52 0.46 0.54 0.59 0.60 0.61 0.61 0.62 0.59 0.61 0.60 0.59 0.59 0.61 0.64 0.67 0.69 0.70 0.74 0.75 0.75 0.74 0.79 0.82 0.83 0.83

GFSNW_prec_pwat_024.txt.gz
Precipitable_Water
0.58 0.64 0.65 0.64 0.62 0.57 0.50 0.35 0.22 0.38 0.41 0.26 0.27 0.22 0.24 0.26 0.27 0.33 0.32 0.34 0.31 0.33 0.38 0.36 0.37 0.39 0.41 0.45 0.49 0.42 0.45 0.40 0.33 0.30 0.34 0.32 0.29 0.25 0.23 0.16 0.16 0.16 0.16 0.15
0.59 0.62 0.67 0.69 0.68 0.63 0.51 0.34 0.32 0.44 0.40 0.22 0.24 0.29 0.28 0.28 0.29 0.31 0.33 0.33 0.36 0.38 0.37 0.36 0.41 0.45 0.48 0.46 0.48 0.46 0.48 0.36 0.32 0.32 0.35 0.35 0.28 0.29 0.27 0.24 0.21 0.18 0.15 0.15
0.63 0.65 0.70 0.73 0.74 0.69 0.59 0.41 0.28 0.32 0.37 0.36 0.30 0.27 0.27 0.26 0.34 0.31 0.31 0.39 0.40 0.34 0.30 0.41 0.40 0.41 0.46 0.47 0.46 0.48 0.51 0.40 0.34 0.29 0.32 0.36 0.30 0.30 0.29 0.27 0.20 0.19 0.21 0.20
0.66 0.69 0.74 0.78 0.78 0.74 0.66 0.48 0.34 0.37 0.26 0.29 0.31 0.33 0.29 0.27 0.27 0.32 0.32 0.37 0.39 0.35 0.27 0.33 0.36 0.43 0.44 0.46 0.47 0.45 0.45 0.36 0.40 0.43 0.42 0.38 0.34 0.31 0.31 0.28 0.28 0.22 0.23 0.25
0.61 0.65 0.74 0.82 0.85 0.79 0.65 0.45 0.39 0.42 0.35 0.36 0.31 0.31 0.29 0.27 0.29 0.30 0.28 0.29 0.37 0.38 0.34 0.34 0.37 0.41 0.42 0.41 0.46 0.43 0.44 0.38 0.40 0.36 0.40 0.39 0.33 0.35 0.34 0.32 0.32 0.30 0.29 0.28
0.56 0.59 0.68 0.78 0.88 0.85 0.66 0.65 0.59 0.47 0.36 0.34 0.30 0.29 0.28 0.30 0.32 0.33 0.36 0.33 0.32 0.32 0.38 0.44 0.44 0.43 0.45 0.45 0.42 0.40 0.41 0.38 0.35 0.30 0.37 0.36 0.30 0.33 0.34 0.34 0.35 0.33 0.27 0.33
0.56 0.58 0.62 0.72 0.87 0.89 0.78 0.70 0.63 0.43 0.31 0.33 0.32 0.31 0.30 0.31 0.34 0.31 0.34 0.35 0.32 0.38 0.46 0.45 0.40 0.35 0.36 0.39 0.40 0.42 0.39 0.38 0.36 0.31 0.35 0.23 0.32 0.41 0.40 0.36 0.36 0.37 0.35 0.36
0.56 0.56 0.62 0.72 0.85 0.92 0.82 0.78 0.65 0.49 0.34 0.36 0.35 0.36 0.33 0.33 0.33 0.31 0.32 0.36 0.41 0.44 0.39 0.33 0.27 0.25 0.26 0.27 0.32 0.35 0.38 0.37 0.31 0.28 0.28 0.32 0.34 0.37 0.37 0.37 0.35 0.40 0.40 0.42
0.53 0.56 0.62 0.74 0.88 0.94 0.87 0.82 0.79 0.62 0.43 0.37 0.41 0.37 0.37 0.31 0.31 0.31 0.34 0.40 0.44 0.42 0.35 0.30 0.22 0.19 0.22 0.20 0.24 0.29 0.36 0.38 0.33 0.29 0.25 0.22 0.33 0.38 0.54 0.52 0.36 0.52 0.60 0.56
0.52 0.59 0.67 0.79 0.92 0.96 0.91 0.82 0.86 0.66 0.49 0.50 0.48 0.40 0.36 0.41 0.36 0.32 0.34 0.35 0.36 0.41 0.34 0.26 0.22 0.21 0.25 0.20 0.21 0.26 0.24 0.31 0.28 0.27 0.25 0.28 0.37 0.52 0.70 0.35 0.53 0.78 0.73 0.73
0.55 0.61 0.72 0.83 0.96 1.00 0.95 0.85 0.89 0.71 0.55 0.54 0.56 0.53 0.44 0.41 0.39 0.31 0.35 0.32 0.35 0.34 0.30 0.26 0.23 0.23 0.28 0.24 0.23 0.24 0.25 0.23 0.23 0.26 0.24 0.22 0.36 0.38 0.40 0.67 0.82 0.79 0.78 0.81
0.58 0.61 0.71 0.85 0.96 1.02 1.00 0.81 0.91 0.88 0.65 0.57 0.64 0.62 0.62 0.57 0.51 0.42 0.41 0.32 0.34 0.34 0.32 0.33 0.32 0.26 0.29 0.28 0.22 0.29 0.22 0.27 0.27 0.28 0.26 0.33 0.40 0.39 0.51 0.57 0.64 0.74 0.66 0.69
0.59 0.60 0.70 0.87 0.96 1.00 1.01 0.89 0.89 0.80 0.64 0.61 0.59 0.51 0.58 0.62 0.59 0.60 0.39 0.41 0.43 0.40 0.42 0.37 0.35 0.28 0.31 0.25 0.26 0.29 0.32 0.35 0.29 0.28 0.31 0.38 0.42 0.43 0.47 0.55 0.58 0.66 0.70 0.68
0.59 0.63 0.75 0.86 0.96 0.98 1.02 0.92 0.92 0.82 0.69 0.51 0.53 0.66 0.56 0.63 0.60 0.59 0.59 0.52 0.54 0.52 0.51 0.44 0.37 0.33 0.41 0.33 0.34 0.31 0.34 0.38 0.32 0.33 0.36 0.34 0.37 0.39 0.44 0.49 0.60 0.67 0.70 0.74
0.65 0.74 0.84 0.89 0.94 0.97 1.01 1.00 0.96 0.93 0.70 0.53 0.55 0.65 0.64 0.63 0.59 0.58 0.60 0.56 0.52 0.51 0.46 0.43 0.39 0.45 0.42 0.40 0.38 0.30 0.38 0.34 0.31 0.27 0.36 0.37 0.38 0.43 0.54 0.55 0.55 0.61 0.64 0.65
0.75 0.83 0.88 0.91 0.92 0.96 0.92 0.75 0.91 0.96 0.88 0.63 0.50 0.66 0.64 0.66 0.67 0.64 0.62 0.62 0.59 0.55 0.50 0.47 0.49 0.53 0.50 0.39 0.32 0.40 0.44 0.47 0.47 0.41 0.48 0.49 0.50 0.53 0.49 0.46 0.45 0.51 0.63 0.74
0.82 0.87 0.89 0.89 0.94 0.94 0.81 0.75 0.87 0.97 0.92 0.64 0.53 0.54 0.67 0.71 0.71 0.68 0.66 0.68 0.63 0.60 0.55 0.52 0.53 0.53 0.55 0.47 0.37 0.45 0.51 0.53 0.54 0.57 0.56 0.48 0.48 0.44 0.47 0.51 0.55 0.62 0.73 0.93
0.85 0.88 0.89 0.92 0.97 0.96 0.86 0.97 1.01 1.00 0.78 0.69 0.53 0.53 0.60 0.76 0.63 0.60 0.71 0.61 0.62 0.59 0.56 0.57 0.53 0.57 0.56 0.46 0.54 0.60 0.65 0.66 0.62 0.63 0.64 0.57 0.56 0.54 0.52 0.61 0.70 0.70 0.85 1.05
0.85 0.89 0.91 0.92 0.89 0.78 0.85 1.02 1.01 0.98 0.78 0.58 0.57 0.50 0.48 0.74 0.66 0.67 0.65 0.65 0.51 0.63 0.53 0.54 0.57 0.52 0.46 0.57 0.64 0.67 0.68 0.67 0.66 0.70 0.69 0.63 0.55 0.51 0.54 0.59 0.68 0.79 1.07 1.10
0.86 0.89 0.78 0.72 0.84 1.02 1.00 0.86 0.75 0.74 0.74 0.72 0.59 0.67 0.56 0.67 0.64 0.61 0.60 0.63 0.53 0.47 0.55 0.62 0.52 0.51 0.63 0.71 0.81 0.85 0.81 0.73 0.73 0.61 0.60 0.58 0.57 0.57 0.60 0.67 0.81 1.04 1.08 1.17
0.82 0.75 0.73 0.88 1.00 0.88 0.78 0.66 0.63 0.66 0.61 0.69 0.68 0.68 0.60 0.73 0.58 0.58 0.65 0.56 0.56 0.46 0.53 0.51 0.48 0.49 0.62 0.77 0.81 0.85 0.87 0.81 0.77 0.78 0.79 0.75 0.78 0.73 0.74 0.90 1.13 1.17 1.19 1.22
0.77 0.82 0.90 0.90 0.77 0.69 0.60 0.57 0.65 0.62 0.58 0.71 0.65 0.68 0.70 0.69 0.73 0.62 0.65 0.56 0.57 0.44 0.63 0.49 0.43 0.54 0.69 0.76 0.81 0.86 0.92 0.95 0.92 0.95 0.96 1.00 0.96 0.91 1.05 1.06 1.10 1.13 1.11 1.15
0.75 0.72 0.67 0.66 0.63 0.51 0.48 0.45 0.51 0.54 0.65 0.68 0.67 0.63 0.70 0.72 0.73 0.64 0.58 0.46 0.47 0.61 0.46 0.42 0.49 0.62 0.70 0.75 0.81 0.85 0.91 0.93 0.94 0.93 0.97 1.00 0.99 1.03 1.05 1.04 1.09 1.13 1.12 1.16
0.49 0.46 0.44 0.52 0.52 0.55 0.56 0.57 0.58 0.65 0.65 0.63 0.64 0.62 0.60 0.64 0.58 0.58 0.48 0.52 0.50 0.40 0.38 0.41 0.55 0.62 0.67 0.74 0.79 0.82 0.82 0.86 0.88 0.90 0.94 0.93 0.94 0.96 1.00 1.01 1.03 1.03 1.01 1.07
0.42 0.41 0.32 0.42 0.55 0.58 0.60 0.63 0.63 0.64 0.66 0.66 0.62 0.61 0.56 0.53 0.51 0.54 0.50 0.46 0.40 0.42 0.41 0.52 0.60 0.62 0.61 0.66 0.72 0.75 0.78 0.82 0.85 0.88 0.89 0.91 0.93 0.93 0.94 0.95 0.95 0.95 0.95 0.93
0.48 0.48 0.41 0.44 0.41 0.40 0.44 0.47 0.47 0.56 0.61 0.68 0.62 0.53 0.48 0.46 0.50 0.45 0.42 0.40 0.37 0.44 0.52 0.57 0.59 0.60 0.59 0.58 0.59 0.65 0.70 0.72 0.74 0.76 0.80 0.83 0.85 0.87 0.88 0.91 0.93 0.91 0.90 0.89
0.46 0.42 0.46 0.41 0.39 0.37 0.38 0.41 0.44 0.53 0.49 0.45 0.49 0.41 0.40 0.49 0.41 0.39 0.46 0.42 0.49 0.54 0.52 0.51 0.53 0.55 0.57 0.59 0.59 0.58 0.58 0.59 0.62 0.64 0.64 0.65 0.68 0.70 0.70 0.71 0.76 0.79 0.80 0.80

GFSNW_prec_pwat_030.txt.gz
Precipitable_Water
0.49 0.49 0.51 0.52 0.53 0.60 0.60 0.58 0.43 0.52 0.46 0.31 0.27 0.24 0.25 0.29 0.29 0.31 0.28 0.26 0.28 0.38 0.43 0.44 0.48 0.52 0.63 0.63 0.52 0.44 0.39 0.32 0.32 0.39 0.40 0.39 0.32 0.28 0.31 0.20 0.18 0.20 0.25 0.30
0.52 0.49 0.50 0.52 0.51 0.58 0.63 0.54 0.50 0.54 0.44 0.28 0.26 0.25 0.24 0.24 0.31 0.30 0.24 0.24 0.32 0.36 0.39 0.40 0.52 0.57 0.71 0.64 0.53 0.53 0.54 0.35 0.30 0.39 0.42 0.39 0.32 0.31 0.32 0.32 0.25 0.20 0.20 0.25
0.53 0.52 0.52 0.53 0.55 0.59 0.69 0.62 0.45 0.50 0.44 0.39 0.31 0.27 0.24 0.26 0.35 0.34 0.31 0.24 0.31 0.33 0.37 0.42 0.46 0.51 0.64 0.64 0.59 0.54 0.55 0.44 0.37 0.34 0.36 0.40 0.34 0.34 0.33 0.32 0.24 0.24 0.23 0.32
0.54 0.53 0.55 0.55 0.57 0.62 0.70 0.66 0.51 0.54 0.39 0.37 0.34 0.32 0.32 0.35 0.29 0.34 0.28 0.27 0.33 0.31 0.30 0.36 0.38 0.47 0.51 0.65 0.61 0.54 0.54 0.44 0.45 0.43 0.46 0.47 0.37 0.34 0.33 0.28 0.31 0.24 0.28 0.29
0.52 0.51 0.54 0.57 0.58 0.64 0.63 0.60 0.58 0.59 0.49 0.45 0.36 0.33 0.33 0.31 0.28 0.25 0.23 0.25 0.30 0.27 0.28 0.37 0.37 0.45 0.46 0.54 0.55 0.51 0.53 0.44 0.51 0.46 0.50 0.54 0.46 0.38 0.35 0.33 0.31 0.33 0.32 0.34
0.51 0.50 0.53 0.55 0.59 0.65 0.59 0.74 0.74 0.63 0.48 0.43 0.38 0.36 0.33 0.29 0.32 0.32 0.29 0.32 0.26 0.23 0.30 0.41 0.41 0.42 0.43 0.51 0.50 0.48 0.49 0.50 0.48 0.41 0.54 0.52 0.45 0.43 0.39 0.35 0.34 0.34 0.30 0.38
0.49 0.49 0.54 0.58 0.62 0.67 0.69 0.76 0.74 0.56 0.43 0.44 0.40 0.42 0.42 0.36 0.34 0.29 0.30 0.31 0.32 0.33 0.37 0.37 0.36 0.37 0.38 0.44 0.48 0.50 0.45 0.46 0.48 0.43 0.53 0.41 0.50 0.55 0.50 0.40 0.37 0.37 0.39 0.43
0.56 0.55 0.58 0.60 0.64 0.70 0.73 0.86 0.75 0.60 0.46 0.49 0.46 0.44 0.43 0.43 0.37 0.34 0.34 0.38 0.44 0.35 0.33 0.30 0.29 0.30 0.29 0.33 0.41 0.42 0.46 0.44 0.41 0.42 0.48 0.51 0.53 0.54 0.49 0.45 0.42 0.44 0.41 0.46
0.69 0.63 0.62 0.63 0.67 0.75 0.84 0.90 0.91 0.70 0.52 0.47 0.54 0.50 0.46 0.44 0.39 0.33 0.33 0.45 0.42 0.38 0.28 0.28 0.24 0.28 0.33 0.24 0.27 0.40 0.42 0.45 0.41 0.43 0.43 0.39 0.53 0.57 0.60 0.56 0.43 0.70 0.57 0.54
0.72 0.69 0.65 0.67 0.76 0.88 0.92 0.91 0.97 0.76 0.57 0.60 0.59 0.50 0.49 0.53 0.48 0.39 0.34 0.39 0.36 0.45 0.37 0.25 0.25 0.28 0.36 0.27 0.26 0.27 0.34 0.39 0.37 0.40 0.40 0.50 0.64 0.62 0.62 0.45 0.63 0.86 0.76 0.66
0.68 0.65 0.68 0.78 0.90 0.95 0.96 0.91 1.01 0.80 0.64 0.65 0.67 0.66 0.57 0.55 0.49 0.39 0.39 0.36 0.44 0.44 0.37 0.33 0.35 0.37 0.35 0.32 0.37 0.35 0.31 0.33 0.36 0.38 0.38 0.42 0.65 0.66 0.59 0.83 0.89 0.85 0.85 0.84
0.67 0.73 0.80 0.90 0.95 1.00 1.03 0.86 1.01 0.98 0.74 0.68 0.79 0.79 0.78 0.71 0.65 0.54 0.50 0.39 0.36 0.41 0.39 0.39 0.37 0.34 0.34 0.36 0.30 0.40 0.35 0.41 0.37 0.41 0.41 0.58 0.63 0.63 0.73 0.73 0.80 0.81 0.82 0.79
0.74 0.81 0.88 0.95 1.00 1.02 1.03 0.94 0.96 0.89 0.72 0.70 0.70 0.67 0.80 0.86 0.76 0.71 0.48 0.49 0.49 0.42 0.45 0.36 0.35 0.31 0.34 0.30 0.32 0.41 0.44 0.49 0.42 0.44 0.48 0.52 0.57 0.61 0.62 0.66 0.67 0.76 0.75 0.77
0.81 0.89 0.95 0.97 0.99 1.02 1.04 0.96 0.99 0.88 0.75 0.58 0.63 0.82 0.75 0.82 0.77 0.72 0.67 0.59 0.61 0.58 0.49 0.40 0.37 0.31 0.37 0.32 0.34 0.34 0.39 0.44 0.43 0.43 0.45 0.50 0.54 0.55 0.56 0.60 0.63 0.65 0.72 0.78
0.87 0.93 0.96 0.95 0.98 0.99 1.03 1.07 1.03 0.99 0.76 0.59 0.63 0.77 0.80 0.83 0.80 0.71 0.70 0.62 0.58 0.53 0.50 0.46 0.42 0.44 0.40 0.35 0.32 0.26 0.34 0.33 0.33 0.35 0.46 0.49 0.52 0.57 0.56 0.53 0.57 0.60 0.64 0.73
0.92 0.95 0.94 0.95 0.98 1.02 1.01 0.82 1.00 1.02 0.96 0.68 0.55 0.75 0.77 0.80 0.78 0.72 0.71 0.71 0.68 0.63 0.56 0.52 0.54 0.58 0.52 0.40 0.32 0.38 0.43 0.46 0.50 0.46 0.51 0.53 0.56 0.58 0.60 0.59 0.59 0.60 0.62 0.66
0.94 0.93 0.94 0.97 1.00 0.99 0.84 0.78 0.90 0.99 0.94 0.67 0.57 0.60 0.75 0.81 0.77 0.75 0.71 0.73 0.68 0.64 0.57 0.54 0.54 0.55 0.55 0.47 0.41 0.50 0.53 0.49 0.46 0.50 0.52 0.47 0.51 0.50 0.59 0.61 0.64 0.67 0.66 0.68
0.94 0.92 0.96 0.99 1.01 1.01 0.91 0.98 0.99 0.99 0.79 0.73 0.58 0.56 0.63 0.78 0.64 0.61 0.72 0.63 0.64 0.61 0.57 0.58 0.53 0.56 0.54 0.43 0.56 0.62 0.67 0.69 0.61 0.51 0.50 0.46 0.53 0.56 0.59 0.58 0.61 0.60 0.58 0.60
0.95 0.97 1.02 1.02 0.95 0.84 0.88 1.00 1.00 0.98 0.81 0.63 0.64 0.54 0.51 0.76 0.68 0.70 0.68 0.67 0.53 0.64 0.53 0.53 0.54 0.50 0.44 0.53 0.59 0.68 0.72 0.68 0.67 0.64 0.52 0.50 0.50 0.52 0.54 0.56 0.55 0.54 0.53 0.53
0.99 0.99 0.90 0.79 0.89 1.03 0.99 0.89 0.77 0.74 0.73 0.72 0.61 0.70 0.60 0.69 0.66 0.62 0.61 0.64 0.55 0.47 0.55 0.61 0.51 0.49 0.63 0.69 0.73 0.76 0.76 0.70 0.74 0.65 0.55 0.54 0.57 0.56 0.55 0.55 0.56 0.56 0.55 0.50
0.94 0.85 0.78 0.96 1.04 0.93 0.82 0.69 0.64 0.66 0.61 0.68 0.70 0.68 0.62 0.74 0.58 0.60 0.69 0.57 0.57 0.46 0.48 0.49 0.47 0.46 0.59 0.72 0.73 0.77 0.82 0.83 0.74 0.73 0.74 0.73 0.69 0.66 0.65 0.64 0.63 0.64 0.64 0.63
0.71 0.79 0.96 1.00 0.84 0.70 0.60 0.55 0.61 0.57 0.51 0.64 0.66 0.68 0.74 0.72 0.74 0.64 0.62 0.54 0.56 0.39 0.51 0.47 0.42 0.53 0.65 0.68 0.72 0.76 0.78 0.81 0.80 0.77 0.78 0.81 0.82 0.79 0.76 0.72 0.72 0.74 0.79 0.85
0.86 0.72 0.68 0.64 0.60 0.46 0.42 0.40 0.48 0.51 0.58 0.59 0.65 0.66 0.80 0.75 0.70 0.66 0.59 0.39 0.35 0.49 0.40 0.39 0.48 0.61 0.66 0.67 0.69 0.73 0.79 0.78 0.78 0.82 0.87 0.86 0.81 0.88 0.83 0.80 0.83 0.85 0.88 0.88
0.52 0.46 0.37 0.40 0.39 0.41 0.42 0.42 0.45 0.52 0.54 0.57 0.62 0.63 0.58 0.56 0.50 0.48 0.44 0.43 0.40 0.32 0.30 0.34 0.49 0.58 0.62 0.65 0.66 0.70 0.73 0.76 0.77 0.79 0.81 0.82 0.83 0.82 0.86 0.90 0.89 0.87 0.85 0.87
0.48 0.47 0.35 0.37 0.39 0.39 0.38 0.41 0.42 0.46 0.53 0.57 0.58 0.55 0.52 0.44 0.40 0.41 0.39 0.35 0.31 0.34 0.33 0.41 0.50 0.57 0.58 0.56 0.55 0.59 0.67 0.72 0.74 0.77 0.77 0.79 0.81 0.82 0.84 0.87 0.90 0.94 0.93 0.93
0.46 0.44 0.40 0.38 0.34 0.35 0.37 0.38 0.38 0.46 0.49 0.58 0.50 0.41 0.41 0.37 0.39 0.33 0.32 0.31 0.29 0.35 0.45 0.43 0.44 0.50 0.49 0.50 0.54 0.52 0.54 0.61 0.67 0.71 0.74 0.73 0.75 0.76 0.80 0.83 0.85 0.87 0.87 0.86
0.48 0.45 0.48 0.41 0.37 0.37 0.39 0.40 0.39 0.48 0.45 0.39 0.42 0.35 0.34 0.41 0.33 0.32 0.38 0.32 0.41 0.44 0.47 0.45 0.50 0.47 0.42 0.43 0.42 0.43 0.46 0.49 0.55 0.62 0.61 0.64 0.69 0.69 0.67 0.66 0.70 0.73 0.76 0.80

GFSNW_prec_pwat_033.txt.gz
Precipitable_Water
0.54 0.53 0.52 0.50 0.47 0.48 0.42 0.51 0.42 0.62 0.58 0.37 0.32 0.25 0.25 0.27 0.24 0.30 0.29 0.31 0.25 0.30 0.32 0.35 0.39 0.44 0.53 0.68 0.65 0.49 0.52 0.41 0.32 0.34 0.43 0.43 0.38 0.29 0.29 0.20 0.17 0.19 0.19 0.21
0.54 0.54 0.52 0.50 0.49 0.50 0.43 0.39 0.53 0.68 0.61 0.33 0.31 0.31 0.27 0.27 0.30 0.34 0.30 0.28 0.26 0.29 0.34 0.33 0.43 0.47 0.58 0.65 0.61 0.52 0.59 0.40 0.31 0.32 0.38 0.41 0.35 0.32 0.31 0.31 0.26 0.19 0.20 0.24
0.54 0.54 0.53 0.50 0.51 0.49 0.48 0.42 0.39 0.56 0.53 0.49 0.38 0.31 0.28 0.28 0.35 0.32 0.34 0.26 0.27 0.29 0.31 0.40 0.38 0.44 0.53 0.62 0.63 0.66 0.60 0.44 0.38 0.31 0.31 0.35 0.34 0.35 0.33 0.32 0.25 0.19 0.23 0.27
0.54 0.54 0.54 0.52 0.51 0.51 0.51 0.41 0.41 0.60 0.45 0.43 0.42 0.40 0.35 0.33 0.29 0.37 0.32 0.25 0.26 0.28 0.27 0.31 0.36 0.42 0.46 0.53 0.63 0.60 0.53 0.38 0.43 0.43 0.40 0.42 0.44 0.37 0.36 0.29 0.31 0.24 0.25 0.31
0.55 0.52 0.53 0.54 0.56 0.55 0.46 0.37 0.44 0.61 0.55 0.51 0.43 0.42 0.39 0.35 0.32 0.30 0.26 0.26 0.28 0.26 0.26 0.34 0.33 0.39 0.41 0.45 0.57 0.56 0.52 0.42 0.46 0.40 0.43 0.47 0.47 0.42 0.39 0.33 0.32 0.32 0.29 0.29
0.64 0.63 0.62 0.61 0.62 0.63 0.45 0.59 0.69 0.65 0.55 0.49 0.43 0.41 0.43 0.41 0.40 0.37 0.34 0.30 0.26 0.26 0.31 0.40 0.40 0.38 0.41 0.44 0.47 0.51 0.49 0.46 0.43 0.35 0.49 0.53 0.48 0.48 0.41 0.38 0.36 0.33 0.28 0.34
0.72 0.75 0.76 0.71 0.68 0.67 0.67 0.71 0.75 0.59 0.47 0.50 0.46 0.46 0.45 0.47 0.45 0.37 0.37 0.34 0.36 0.38 0.45 0.42 0.37 0.36 0.38 0.41 0.44 0.54 0.50 0.46 0.44 0.42 0.51 0.40 0.52 0.60 0.56 0.42 0.41 0.38 0.37 0.46
0.71 0.73 0.73 0.73 0.72 0.78 0.81 0.86 0.77 0.63 0.49 0.54 0.50 0.49 0.48 0.49 0.48 0.44 0.37 0.40 0.44 0.46 0.37 0.31 0.27 0.31 0.33 0.36 0.41 0.47 0.53 0.46 0.42 0.45 0.46 0.49 0.56 0.64 0.58 0.46 0.54 0.67 0.57 0.51
0.69 0.72 0.73 0.73 0.83 0.93 0.92 0.90 0.93 0.72 0.55 0.51 0.58 0.53 0.52 0.45 0.46 0.43 0.40 0.48 0.45 0.41 0.35 0.31 0.26 0.29 0.36 0.38 0.35 0.47 0.48 0.48 0.44 0.49 0.45 0.42 0.60 0.68 0.69 0.65 0.53 0.78 0.78 0.72
0.71 0.73 0.76 0.85 0.93 0.98 0.96 0.91 0.98 0.78 0.59 0.65 0.64 0.54 0.52 0.58 0.51 0.44 0.43 0.40 0.44 0.53 0.38 0.28 0.31 0.32 0.42 0.35 0.39 0.35 0.38 0.42 0.40 0.46 0.46 0.60 0.73 0.73 0.76 0.50 0.67 0.84 0.84 0.86
0.74 0.80 0.85 0.92 0.97 0.99 0.98 0.94 1.02 0.83 0.67 0.68 0.72 0.70 0.60 0.60 0.56 0.44 0.47 0.38 0.39 0.42 0.35 0.37 0.39 0.38 0.41 0.40 0.46 0.43 0.36 0.39 0.41 0.45 0.44 0.49 0.77 0.74 0.66 0.77 0.82 0.84 0.86 0.93
0.78 0.83 0.91 0.97 0.99 1.01 1.04 0.89 1.04 1.02 0.77 0.71 0.83 0.82 0.82 0.77 0.70 0.59 0.56 0.46 0.42 0.42 0.37 0.36 0.38 0.37 0.43 0.38 0.37 0.50 0.42 0.50 0.48 0.51 0.54 0.67 0.83 0.78 0.73 0.77 0.80 0.79 0.80 0.88
0.83 0.90 0.96 0.99 0.99 1.03 1.05 0.97 0.99 0.91 0.75 0.72 0.72 0.70 0.84 0.90 0.82 0.80 0.54 0.53 0.53 0.46 0.49 0.40 0.39 0.35 0.39 0.35 0.38 0.40 0.47 0.53 0.50 0.51 0.58 0.62 0.72 0.79 0.79 0.72 0.76 0.81 0.78 0.80
0.92 0.94 0.98 0.97 1.00 1.02 1.04 0.96 0.99 0.88 0.75 0.58 0.62 0.85 0.79 0.87 0.81 0.77 0.74 0.64 0.62 0.57 0.50 0.38 0.37 0.32 0.40 0.32 0.36 0.35 0.39 0.45 0.45 0.46 0.57 0.60 0.65 0.75 0.79 0.73 0.78 0.77 0.77 0.74
0.94 0.95 0.96 0.99 1.00 1.02 1.05 1.02 0.99 0.96 0.73 0.56 0.61 0.77 0.84 0.84 0.81 0.77 0.74 0.69 0.61 0.56 0.49 0.46 0.39 0.43 0.40 0.38 0.35 0.33 0.43 0.43 0.41 0.41 0.53 0.59 0.60 0.69 0.76 0.76 0.76 0.80 0.78 0.74
0.94 0.94 0.96 0.99 1.01 1.04 0.97 0.77 0.95 0.98 0.89 0.64 0.51 0.73 0.73 0.77 0.78 0.73 0.71 0.70 0.67 0.63 0.56 0.52 0.53 0.59 0.49 0.36 0.31 0.41 0.48 0.49 0.48 0.42 0.53 0.55 0.59 0.63 0.70 0.73 0.76 0.76 0.79 0.78
0.93 0.95 0.97 0.99 0.99 0.96 0.81 0.75 0.89 0.98 0.91 0.66 0.56 0.59 0.74 0.80 0.77 0.72 0.69 0.72 0.67 0.63 0.58 0.54 0.54 0.55 0.56 0.46 0.40 0.51 0.53 0.53 0.53 0.53 0.50 0.41 0.50 0.52 0.65 0.68 0.73 0.76 0.78 0.80
0.93 0.97 1.00 1.00 1.01 0.99 0.88 0.93 0.96 0.94 0.78 0.73 0.58 0.58 0.65 0.79 0.65 0.60 0.71 0.61 0.62 0.61 0.57 0.58 0.53 0.55 0.53 0.44 0.56 0.62 0.67 0.68 0.63 0.58 0.56 0.45 0.44 0.50 0.55 0.62 0.68 0.70 0.73 0.76
0.97 1.00 1.04 1.03 0.94 0.82 0.86 0.96 0.95 0.93 0.78 0.62 0.64 0.56 0.50 0.78 0.68 0.70 0.68 0.67 0.53 0.64 0.55 0.54 0.56 0.49 0.44 0.54 0.59 0.64 0.71 0.71 0.69 0.74 0.72 0.61 0.48 0.40 0.45 0.51 0.55 0.58 0.63 0.68
1.00 0.99 0.90 0.79 0.89 1.02 0.99 0.88 0.75 0.75 0.76 0.77 0.67 0.72 0.60 0.70 0.63 0.60 0.57 0.60 0.53 0.48 0.55 0.61 0.52 0.50 0.62 0.66 0.70 0.71 0.74 0.74 0.72 0.68 0.62 0.60 0.51 0.43 0.42 0.45 0.51 0.55 0.58 0.60
0.87 0.87 0.81 0.96 1.06 0.93 0.82 0.65 0.62 0.64 0.59 0.70 0.77 0.77 0.67 0.78 0.59 0.57 0.60 0.49 0.47 0.35 0.44 0.48 0.47 0.46 0.58 0.66 0.70 0.73 0.76 0.76 0.72 0.77 0.75 0.70 0.65 0.58 0.54 0.54 0.57 0.60 0.60 0.59
0.66 0.77 0.94 0.93 0.81 0.64 0.47 0.46 0.53 0.54 0.48 0.60 0.61 0.72 0.75 0.74 0.76 0.64 0.63 0.46 0.46 0.31 0.45 0.39 0.37 0.53 0.63 0.63 0.67 0.73 0.75 0.75 0.74 0.75 0.75 0.77 0.78 0.80 0.72 0.67 0.68 0.69 0.68 0.68
0.82 0.70 0.58 0.55 0.49 0.39 0.36 0.32 0.38 0.41 0.48 0.53 0.59 0.61 0.67 0.71 0.68 0.59 0.57 0.37 0.31 0.43 0.34 0.32 0.42 0.52 0.59 0.59 0.62 0.70 0.77 0.76 0.75 0.75 0.79 0.81 0.81 0.85 0.80 0.75 0.79 0.78 0.72 0.72
0.60 0.47 0.35 0.40 0.38 0.40 0.36 0.35 0.36 0.40 0.43 0.50 0.58 0.56 0.53 0.57 0.48 0.41 0.38 0.42 0.37 0.28 0.27 0.29 0.38 0.46 0.49 0.55 0.55 0.59 0.67 0.76 0.73 0.73 0.74 0.74 0.74 0.77 0.80 0.80 0.79 0.79 0.77 0.81
0.48 0.48 0.36 0.36 0.40 0.42 0.41 0.42 0.41 0.42 0.51 0.53 0.57 0.51 0.48 0.41 0.37 0.38 0.38 0.33 0.28 0.32 0.33 0.40 0.46 0.42 0.37 0.39 0.45 0.46 0.53 0.62 0.71 0.73 0.72 0.73 0.73 0.73 0.75 0.79 0.81 0.82 0.81 0.82
0.52 0.47 0.42 0.39 0.36 0.38 0.39 0.39 0.38 0.48 0.49 0.52 0.51 0.39 0.36 0.34 0.38 0.33 0.30 0.28 0.29 0.37 0.41 0.47 0.49 0.45 0.44 0.38 0.35 0.37 0.40 0.48 0.55 0.67 0.71 0.72 0.70 0.70 0.72 0.77 0.76 0.78 0.80 0.80
0.52 0.49 0.52 0.46 0.40 0.39 0.41 0.42 0.42 0.50 0.47 0.38 0.41 0.31 0.32 0.41 0.32 0.31 0.36 0.33 0.38 0.47 0.43 0.54 0.55 0.47 0.46 0.41 0.37 0.35 0.37 0.35 0.40 0.51 0.58 0.63 0.69 0.67 0.64 0.61 0.68 0.71 0.73 0.72